STARLINK-11507 [DTC] (62519 NORAD) Tracking and Keplerian Element Data

This shows tracking and keplerian element data for the satellite.

Feedback or suggestion? Click here.




ElementValue
Catalog62519
NameSTARLINK-11507 [DTC]
Epoch Orbit526
Epoch Day35.10999327
Epoch Year2025
RAAN314.0273
Inclination42.9978
Eccentricity0.0001891
Argument of Perigee245.0651
Mean Anonmoly115.0023
Mean Motion15.77858405
Decay Rate2.449E-05
L11 62519U 25004J 25035.10999327 .00002449 00000+0 16937-4 0 9997
L22 62519 42.9978 314.0273 0001891 245.0651 115.0023 15.77858405 5261



Live tracking and technical data element details for STARLINK-11507 [DTC] (NORAD 62519). STARLINK-11507 [DTC] can be tracked NOW for your location showing map with azimuth and elevation plus other details from your city location.







IsCatalogInMostPopularTable: catalog: 62519, numindb: 28
Update: records affected: 1



GetName: 62519 STARLINK-11507 [DTC]

Hit Count: updated at: Sun, 18 May 2025 23:46:05 GMT